This is the latest recevied weather packets stored in our database for station/object KK7MLS-13. If no packets are shown the sender has not sent any weather packets the latest 1 day(s).
| Time | Temp. | Humidity | Pressure | Rain* | Wind** | Luminosity | Snow |
|---|---|---|---|---|---|---|---|
| 1778079657 | 13.89° C | 84% | 1021 hPa | 0 mm | - | 23 W/m² | - |
| 1778079354 | 13.89° C | 85% | 1021.1 hPa | 0 mm | - | 21 W/m² | - |
| 1778078143 | 13.89° C | 83% | 1020.8 hPa | 0 mm | - | 19 W/m² | - |
| 1778077237 | 13.89° C | 84% | 1020.4 hPa | 0 mm | - | 33 W/m² | - |
| 1778076027 | 13.33° C | 85% | 1020 hPa | 0 mm | - | 32 W/m² | - |
| 1778074510 | 13.33° C | 85% | 1019.9 hPa | 0 mm | - | 16 W/m² | - |
| 1778072388 | 13.33° C | 85% | 1019.7 hPa | 0 mm | - | 2 W/m² | - |
| 1778072086 | 13.33° C | 85% | 1019.9 hPa | 0 mm | - | 1 W/m² | - |
| 1778071784 | 13.33° C | 84% | 1019.6 hPa | 0 mm | - | 1 W/m² | - |
| 1778070877 | 13.33° C | 84% | 1019.5 hPa | 0 mm | - | 0 W/m² | - |
| 1778070574 | 13.89° C | 84% | 1019.6 hPa | 0 mm | - | 0 W/m² | - |
| 1778070271 | 13.89° C | 85% | 1019.6 hPa | 0 mm | - | 0 W/m² | - |
| 1778069363 | 13.89° C | 85% | 1019.6 hPa | 0 mm | - | 0 W/m² | - |
| 1778066943 | 13.89° C | 84% | 1019.1 hPa | 0 mm | - | 0 W/m² | - |
| 1778066036 | 13.89° C | 84% | 1018.9 hPa | 0 mm | - | 0 W/m² | - |
| 1778065733 | 13.89° C | 84% | 1018.9 hPa | 0 mm | - | 0 W/m² | - |
| 1778065430 | 13.89° C | 84% | 1019.1 hPa | 0 mm | - | 0 W/m² | - |
| 1778065127 | 13.89° C | 84% | 1018.9 hPa | 0 mm | - | 0 W/m² | - |
| 1778064823 | 13.89° C | 83% | 1018.6 hPa | 0 mm | - | 0 W/m² | - |
| 1778064521 | 13.89° C | 83% | 1018.8 hPa | 0 mm | - | 0 W/m² | - |
| 1778063916 | 13.89° C | 83% | 1018.5 hPa | 0 mm | - | 0 W/m² | - |
| 1778063613 | 13.89° C | 83% | 1018.5 hPa | 0 mm | - | 0 W/m² | - |
| 1778062705 | 13.89° C | 83% | 1018.3 hPa | 0 mm | - | 0 W/m² | - |
| 1778062401 | 13.89° C | 83% | 1018.1 hPa | 0 mm | - | 0 W/m² | - |
| 1778061192 | 13.89° C | 83% | 1018.5 hPa | 0 mm | - | 0 W/m² | - |
* Rain latest hour (hover to see other rain measurements)
** Current wind speed in m/s (hover to see current wind gust speed)